STARLINK-37276, 69258

Orbit data source: Space-Track

STARLINK-37276, 69258 is a payload satellite owned by SpaceX/Seattle (US) in LEO that was launched on Fri, 29 May 2026 UTC via an FALCON 9 launch vehicle from the Air Force Eastern Test Range (AFETR). Payload-class satellites include a variety of spacecraft equipped with specific instruments for various scientific and technological missions. These include communications satellites like Starlink; space stations such as the ISS; scientific satellites like the Hubble; Earth observation satellites from companies like Planet Labs, Umbra, and HawkEye 360; GPS; miniature CubeSats for education and research; and military/defense satellites.

Loading next visibility...
Identifier
69258, 2026-117W
Orbit
LEO
Country
Flag of USUS
Related business
Manufacturer
SpaceX/Seattle
Mission
Operational spacecraft
Bus & Motor
STARLINK V2MO, Unknown motor
Mass
575 kg wet, ~530 kg dry
Launch date (UTC)
2026-05-29 (3 weeks ago)
Launch vehicle
FALCON 9
Launch site
Air Force Eastern Test Range (AFETR)
Object type
Payload
Rocket body
Debris
Shape & HBR
Unknown
Radar Cross Section
Large (>1 m²)

Expand to show TLE details & history
Last TLE update: 10 hours ago

TLE from 10 hours ago
0 STARLINK-37276
1 69258U 26117W   26168.68885832 -.04562456  00000-0 -32766-1 0  9997
2 69258  53.1569 240.3665 0015407 119.5300 240.7259 15.76753990  3063
Epoch: 2026-06-17T16:31Z
TLE epoch observation values (Epoch: 2026-06-17T16:31:57.358Z)
Latitude
-0.00006°
Longitude
86.43452°
Altitude
345.635 km
Speed
7.7 km/s
True Right ascension
16h 01m 27s
True Declination
0° 00' 00"
Sunlit
Object was in full shadow at epoch
Visualization orbit readout
Latitude
Unknown
Longitude
Unknown
Altitude
Unknown
Speed
Unknown
Apparent Right ascension
Unknown
Apparent Declination
Unknown
Sunlit
N/A
Visualization observer readout
Local Sidereal Time
13:18:24
Azimuth
Unknown
Elevation
Unknown
Doppler factor
Unknown
Orbital elements
Apogee altitude
350.257 km
Perigee altitude
329.556 km
Semi-major axis
6,718.044 km
Eccentricity
0.00154
Inclination
53.1569°
RAAN
240.3665°
Arg. of periapsis
119.53°
True anomaly
240.57204°
Mean anomaly
240.7259°
Eccentric anomaly
240.64896°
Mean motion
3.94166 °/min
Orbital period
91.33 mins
BSTAR
-0.032766
Loading maneuver chart data...
Computing Atmospheric mass density...
Loading historical data...
Loading historical data...
Loading historical data...
Loading historical data...
Loading historical data...
Loading historical data...
Loading historical data...

Documentation

Showing up to 5 results
|